| time (UTC) | temp C | wind direction | speed KPH | gust KPH | rain 1hr cm | rain 24hr cm | rain mn cm | humidity % | barometer mb |
| 20260506214530 | 13 | 15 | 0.0 | 1.6 | 0.00 | 0.00 | 0.00 | 81 | 1010.5 |
| 20260506213028 | 13 | 13 | 0.0 | 1.6 | 0.00 | 0.00 | 0.00 | 81 | 1010.4 |
| 20260506211539 | 14 | 13 | 0.0 | 1.6 | 0.00 | 0.00 | 0.00 | 82 | 1010.3 |
| 20260506210034 | 14 | 8 | 0.0 | 3.2 | 0.00 | 0.00 | 0.00 | 82 | 1010.1 |
| 20260506204531 | 15 | 34 | 0.0 | 1.6 | 0.00 | 0.00 | 0.00 | 82 | 1010.0 |
| 20260506203024 | 15 | 23 | 0.0 | 3.2 | 0.00 | 0.00 | 0.00 | 83 | 1009.9 |
| 20260506201533 | 15 | 20 | 0.0 | 1.6 | 0.00 | 0.00 | 0.00 | 83 | 1009.9 |
| 20260506200029 | 15 | 20 | 0.0 | 1.6 | 0.00 | 0.00 | 0.00 | 84 | 1009.7 |
| 20260506194522 | 16 | 32 | 0.0 | 1.6 | 0.00 | 0.00 | 0.00 | 84 | 1009.4 |
| 20260506193032 | 16 | 34 | 0.0 | 4.8 | 0.00 | 0.00 | 0.00 | 83 | 1009.2 |
| 20260506191521 | 16 | 20 | 0.0 | 6.4 | 0.00 | 0.00 | 0.00 | 83 | 1009.0 |
| 20260506190020 | 16 | 26 | 0.0 | 3.2 | 0.00 | 0.00 | 0.00 | 83 | 1008.8 |
| 20260506184519 | 16 | 22 | 0.0 | 1.6 | 0.00 | 0.00 | 0.00 | 85 | 1008.5 |
| 20260506183019 | 17 | 46 | 0.0 | 3.2 | 0.00 | 0.00 | 0.00 | 86 | 1008.5 |
| 20260506181534 | 17 | 32 | 0.0 | 1.6 | 0.00 | 0.00 | 0.00 | 85 | 1008.5 |
| 20260506180017 | 17 | 28 | 0.0 | 1.6 | 0.00 | 0.00 | 0.00 | 85 | 1008.3 |
| 20260506174517 | 17 | 27 | 0.0 | 1.6 | 0.00 | 0.00 | 0.00 | 84 | 1008.2 |
| 20260506173019 | 17 | 337 | 0.0 | 1.6 | 0.00 | 0.00 | 0.00 | 84 | 1008.1 |
| 20260506171517 | 17 | 13 | 0.0 | 6.4 | 0.00 | 0.00 | 0.00 | 85 | 1007.9 |
| 20260506170014 | 18 | 16 | 0.0 | 6.4 | 0.00 | 0.00 | 0.00 | 85 | 1007.8 |
| 20260506164514 | 18 | 34 | 0.0 | 8.0 | 0.00 | 0.00 | 0.00 | 86 | 1007.8 |
| 20260506163016 | 18 | 19 | 0.0 | 4.8 | 0.00 | 0.00 | 0.00 | 86 | 1007.9 |
| 20260506161512 | 18 | 352 | 0.0 | 6.4 | 0.00 | 0.00 | 0.00 | 87 | 1008.0 |
| 20260506160012 | 18 | 37 | 0.0 | 3.2 | 0.00 | 0.00 | 0.00 | 88 | 1008.0 |
| 20260506154511 | 18 | 35 | 0.0 | 11.3 | 0.00 | 0.00 | 0.00 | 92 | 1007.9 |
| 20260506153010 | 17 | 262 | 0.0 | 8.0 | 0.00 | 0.00 | 0.00 | 96 | 1007.9 |
| 20260506151509 | 17 | 4 | 1.6 | 8.0 | 0.00 | 0.00 | 0.00 | 96 | 1007.8 |
| 20260506150014 | 18 | 34 | 0.0 | 8.0 | 0.00 | 0.00 | 0.00 | 96 | 1007.9 |
| 20260506144507 | 18 | 17 | 0.0 | 8.0 | 0.00 | 0.00 | 0.00 | 96 | 1007.9 |
| 20260506143005 | 17 | 46 | 0.0 | 9.7 | 0.00 | 0.00 | 0.00 | 97 | 1008.0 |
| 20260506141503 | 17 | 352 | 0.0 | 6.4 | 0.00 | 0.00 | 0.00 | 96 | 1008.2 |
| 20260506140005 | 17 | 22 | 0.0 | 3.2 | 0.00 | 0.00 | 0.00 | 97 | 1008.4 |
| 20260506134600 | 17 | 23 | 0.0 | 6.4 | 0.00 | 0.00 | 0.00 | 97 | 1008.4 |
| 20260506133126 | 17 | 29 | 0.0 | 6.4 | 0.00 | 0.00 | 0.00 | 96 | 1008.5 |
| 20260506131559 | 17 | 12 | 0.0 | 11.3 | 0.00 | 0.00 | 0.00 | 97 | 1008.7 |
| 20260506130121 | 17 | 12 | 0.0 | 6.4 | 0.00 | 0.00 | 0.00 | 97 | 1008.7 |
| 20260506124559 | 17 | 17 | 0.0 | 1.6 | 0.00 | 0.00 | 0.00 | 96 | 1008.8 |
| 20260506123057 | 17 | 234 | 0.0 | 1.6 | 0.00 | 0.00 | 0.00 | 93 | 1008.9 |
| 20260506121556 | 18 | 232 | 0.0 | 9.7 | 0.00 | 0.00 | 0.00 | 90 | 1009.1 |
| 20260506120053 | 18 | 278 | 0.0 | 1.6 | 0.00 | 0.00 | 0.00 | 96 | 1008.5 |
| 20260506114556 | 18 | 41 | 0.0 | 1.6 | 0.00 | 0.00 | 0.00 | 96 | 1008.8 |
| 20260506113051 | 18 | 38 | 0.0 | 8.0 | 0.00 | 0.00 | 0.00 | 96 | 1008.8 |
| 20260506111549 | 18 | 44 | 0.0 | 4.8 | 0.00 | 0.00 | 0.00 | 96 | 1008.9 |
| 20260506110048 | 18 | 40 | 0.0 | 4.8 | 0.00 | 0.00 | 0.00 | 96 | 1009.1 |
| 20260506104608 | 18 | 24 | 0.0 | 6.4 | 0.00 | 0.00 | 0.00 | 97 | 1009.2 |
| 20260506103043 | 18 | 127 | 0.0 | 8.0 | 0.00 | 0.00 | 0.00 | 98 | 1009.4 |
| 20260506101544 | 17 | 129 | 0.0 | 8.0 | 0.00 | 0.00 | 0.00 | 99 | 1009.5 |
| 20260506100042 | 16 | 300 | 1.6 | 191.5 | 0.00 | 0.00 | 0.00 | 98 | 1009.4 |
| 20260506094538 | 16 | 143 | 0.0 | 3.2 | 0.00 | 0.00 | 0.00 | 98 | 1009.4 |
| 20260506093032 | 16 | 20 | 0.0 | 3.2 | 0.00 | 0.00 | 0.00 | 98 | 1009.5 |
| 20260506091530 | 15 | 181 | 0.0 | 8.0 | 0.00 | 0.00 | 0.00 | 98 | 1009.7 |
| 20260506090033 | 15 | 282 | 0.0 | 4.8 | 0.00 | 0.00 | 0.00 | 98 | 1009.8 |
| 20260506084526 | 15 | 304 | 0.0 | 3.2 | 0.00 | 0.00 | 0.00 | 98 | 1009.8 |
| 20260506083036 | 15 | 98 | 0.0 | 3.2 | 0.00 | 0.00 | 0.00 | 98 | 1009.8 |
| 20260506081523 | 15 | 320 | 0.0 | 4.8 | 0.00 | 0.00 | 0.00 | 98 | 1009.7 |
| 20260506073019 | 14 | 54 | 0.0 | 4.8 | 0.00 | 0.00 | 0.00 | 98 | 1009.6 |
| 20260506071521 | 14 | 302 | 0.0 | 1.6 | 0.00 | 0.00 | 0.00 | 98 | 1009.8 |
| 20260506061516 | 14 | 19 | 0.0 | 1.6 | 0.00 | 0.00 | 0.00 | 98 | 1010.1 |
| 20260506044510 | 13 | 53 | 0.0 | 1.6 | 0.00 | 0.00 | 0.00 | 98 | 1010.5 |
| 20260506043014 | 13 | 293 | 1.6 | 9.7 | 0.00 | 0.00 | 0.00 | 98 | 1010.2 |
| 20260506041508 | 13 | 277 | 0.0 | 6.4 | 0.00 | 0.00 | 0.00 | 98 | 1010.3 |
| 20260506040008 | 13 | 337 | 0.0 | 1.6 | 0.00 | 0.00 | 0.00 | 98 | 1010.2 |
| 20260506034506 | 13 | 11 | 0.0 | 1.6 | 0.00 | 0.00 | 0.00 | 98 | 1010.2 |
| 20260506033006 | 13 | 108 | 0.0 | 0.0 | 0.00 | 0.00 | 0.00 | 98 | 1009.9 |
| 20260506031504 | 13 | 160 | 0.0 | 1.6 | 0.00 | 0.00 | 0.00 | 98 | 1010.2 |
| 20260506030004 | 13 | 173 | 0.0 | 3.2 | 0.00 | 0.00 | 0.00 | 98 | 1010.2 |
| 20260506024601 | 13 | 183 | 0.0 | 6.4 | 0.00 | 0.00 | 0.00 | 98 | 1010.5 |
| 20260506023059 | 13 | 183 | 0.0 | 4.8 | 0.00 | 0.00 | 0.00 | 97 | 1010.7 |
| 20260506021559 | 13 | 192 | 0.0 | 4.8 | 0.00 | 0.00 | 0.00 | 97 | 1010.9 |
| 20260506020052 | 13 | 193 | 1.6 | 6.4 | 0.00 | 0.00 | 0.00 | 96 | 1011.0 |
| 20260506014551 | 13 | 186 | 1.6 | 4.8 | 0.00 | 0.00 | 0.00 | 96 | 1011.1 |
| 20260506013049 | 13 | 193 | 0.0 | 3.2 | 0.00 | 0.00 | 0.00 | 96 | 1011.3 |
| 20260506011553 | 13 | 179 | 0.0 | 3.2 | 0.00 | 0.00 | 0.00 | 96 | 1011.5 |
| 20260506010054 | 13 | 174 | 0.0 | 3.2 | 0.00 | 0.00 | 0.00 | 96 | 1011.5 |
| 20260506004549 | 13 | 276 | 0.0 | 3.2 | 0.00 | 0.00 | 0.00 | 96 | 1011.4 |
| 20260506003047 | 13 | 185 | 0.0 | 4.8 | 0.00 | 0.00 | 0.00 | 96 | 1011.3 |
| 20260506001546 | 13 | 165 | 0.0 | 6.4 | 0.00 | 0.00 | 0.00 | 96 | 1011.4 |
| 20260506000044 | 13 | 194 | 0.0 | 4.8 | 0.00 | 0.00 | 0.00 | 96 | 1011.5 |
| 20260505234605 | 13 | 191 | 0.0 | 3.2 | 0.00 | 0.00 | 0.00 | 96 | 1011.7 |
| 20260505233048 | 13 | 146 | 0.0 | 6.4 | 0.00 | 0.00 | 0.00 | 96 | 1011.7 |
| 20260505231542 | 13 | 177 | 1.6 | 3.2 | 0.00 | 0.00 | 0.00 | 96 | 1011.6 |
| 20260505230043 | 13 | 181 | 0.0 | 4.8 | 0.00 | 0.00 | 0.00 | 95 | 1011.6 |
| 20260505224540 | 13 | 182 | 1.6 | 4.8 | 0.00 | 0.00 | 0.00 | 95 | 1011.8 |
| 20260505223040 | 13 | 186 | 1.6 | 4.8 | 0.00 | 0.00 | 0.00 | 95 | 1011.8 |
| 20260505221537 | 13 | 180 | 0.0 | 3.2 | 0.00 | 0.00 | 0.00 | 95 | 1012.0 |
| 20260505220033 | 13 | 187 | 0.0 | 6.4 | 0.00 | 0.00 | 0.00 | 95 | 1012.1 |